Regional Weather Roundup
Issued by NWS

Home | Current Version | Previous Version | Text Only | Print | Product List | Glossary Off
Versions: 1 2 3 4 5 6 7 8 9 10 11 12 13 14 15 16 17 18 19 20 21 22 23 24 25 26 27 28 29 30 31 32 33 34 35 36 37 38 39 40 41 42 43 44 45 46 47 48 49 50

000
ASUS43 KLMK 270802
RWRKY
KENTUCKY REGIONAL WEATHER ROUNDUP
NATIONAL WEATHER SERVICE LOUISVILLE KY
300 AM EST MON FEB 27 2017

NOTE "FAIR" INDICATES FEW OR NO CLOUDS BELOW 12,000 FEET
WITH NO SIGNIFICANT WEATHER AND/OR OBSTRUCTIONS TO VISIBILITY.

KYZ001>023-026-027-061>063-070>075-270900-
WESTERN AND SOUTH CENTRAL KENTUCKY

CITY           SKY/WX    TMP DP  RH WIND       PRES   REMARKS
PADUCAH        LGT RAIN  45  40  82 E5        30.13F
HENDERSON      CLOUDY    46  30  53 SW6       30.17R
OWENSBORO      LGT RAIN  48  32  53 SW7       30.18S
HOPKINSVILLE   DRIZZLE   48  39  71 S8        30.18S
BOWLING GREEN  LGT RAIN  50  36  58 S14G24    30.22R
GLASGOW        NOT AVBL
$$

KYZ024-025-028>034-038-045-046-053-270900-
NORTH CENTRAL KENTUCKY

CITY           SKY/WX    TMP DP  RH WIND       PRES   REMARKS
LOUISVILLE/SDF CLOUDY    50  29  44 SW8       30.21R
LOUISVILLE/LOU CLOUDY    49  31  49 S5        30.21R
FORT KNOX      CLOUDY    48  31  50 S9        30.19R
$$

KYZ035>037-039>044-047>052-055>060-089>105-270900-
NORTHEAST KENTUCKY

CITY           SKY/WX    TMP DP  RH WIND       PRES   REMARKS
LEXINGTON      LGT RAIN  46  33  60 W13       30.23R
COVINGTON      CLOUDY    43  21  41 SW6       30.19R
FRANKFORT      CLOUDY    48  31  51 SW9       30.21R
$$

KYZ054-064>069-076>088-106>120-270900-
SOUTHEAST KENTUCKY

CITY           SKY/WX    TMP DP  RH WIND       PRES   REMARKS
JACKSON        CLOUDY    42  20  41 CALM      30.22R
LONDON         CLOUDY    41  25  53 NE3       30.22R
SOMERSET       CLOUDY    39  30  70 CALM      30.25R
MIDDLESBORO    CLOUDY    34  29  83 CALM      30.24S
MONTICELLO     LGT RAIN  43  31  62 VRB7      30.25R
$$





USA.gov is the U.S. government's official web portal to all federal, state and local government web resources and services.